TimeCET,TemperatureF,Dew PointF,Humidity,Sea Level PressureIn,VisibilityMPH,Wind Direction,Wind SpeedMPH,Gust SpeedMPH,PrecipitationIn,Events,Conditions,WindDirDegrees,DateUTC
12:20 AM,69.8,62.6,78,29.86,5.0,South,11.5,-,N/A,,Mostly Cloudy,180,2012-11-04 23:20:00
12:50 AM,69.8,62.6,78,29.86,5.0,South,12.7,-,N/A,Rain,Light Rain,190,2012-11-04 23:50:00
1:20 AM,68.0,64.4,88,29.86,2.5,South,11.5,-,N/A,Rain,Light Rain,190,2012-11-05 00:20:00
1:50 AM,68.0,64.4,88,29.83,1.9,South,12.7,-,N/A,Rain,Rain,180,2012-11-05 00:50:00
2:20 AM,68.0,64.4,88,29.83,5.0,South,15.0,-,N/A,,Mostly Cloudy,180,2012-11-05 01:20:00
2:50 AM,68.0,64.4,88,29.80,5.0,South,10.4,-,N/A,,Mostly Cloudy,180,2012-11-05 01:50:00
3:20 AM,69.8,64.4,83,29.80,5.0,South,10.4,-,N/A,,Mostly Cloudy,190,2012-11-05 02:20:00
4:50 AM,71.6,66.2,83,29.80,5.0,SSW,13.8,-,N/A,,Mostly Cloudy,200,2012-11-05 03:50:00
5:20 AM,71.6,66.2,83,29.77,5.0,South,13.8,-,N/A,,Mostly Cloudy,190,2012-11-05 04:20:00
6:20 AM,71.6,66.2,83,29.77,6.2,South,11.5,-,N/A,,Mostly Cloudy,190,2012-11-05 05:20:00
6:50 AM,71.6,66.2,83,29.77,6.2,SSW,11.5,-,N/A,,Mostly Cloudy,210,2012-11-05 05:50:00
7:20 AM,71.6,66.2,83,29.80,6.2,SSW,11.5,-,N/A,,Mostly Cloudy,200,2012-11-05 06:20:00
7:50 AM,73.4,66.2,78,29.80,6.2,South,12.7,-,N/A,,Mostly Cloudy,190,2012-11-05 06:50:00
8:20 AM,73.4,66.2,78,29.80,6.2,SSW,10.4,-,N/A,,Mostly Cloudy,200,2012-11-05 07:20:00
8:50 AM,73.4,68.0,83,29.77,6.2,SSW,11.5,-,N/A,,Mostly Cloudy,200,2012-11-05 07:50:00
9:20 AM,73.4,68.0,83,29.77,6.2,South,12.7,-,N/A,,Mostly Cloudy,190,2012-11-05 08:20:00
9:50 AM,73.4,68.0,83,29.80,6.2,South,9.2,-,N/A,,Mostly Cloudy,190,2012-11-05 08:50:00
10:20 AM,71.6,68.0,88,29.80,6.2,South,9.2,-,N/A,,Mostly Cloudy,190,2012-11-05 09:20:00
11:20 AM,71.6,68.0,88,29.80,6.2,SSW,10.4,-,N/A,,Mostly Cloudy,200,2012-11-05 10:20:00
11:50 AM,73.4,68.0,83,29.77,6.2,South,10.4,-,N/A,,Mostly Cloudy,190,2012-11-05 10:50:00
12:20 PM,73.4,68.0,83,29.77,6.2,SSW,8.1,-,N/A,,Mostly Cloudy,200,2012-11-05 11:20:00
12:50 PM,73.4,68.0,83,29.77,6.2,South,10.4,-,N/A,,Mostly Cloudy,190,2012-11-05 11:50:00
1:20 PM,71.6,68.0,88,29.77,6.2,South,10.4,-,N/A,,Mostly Cloudy,180,2012-11-05 12:20:00
1:50 PM,71.6,66.2,83,29.77,5.0,SSW,8.1,-,N/A,,Mostly Cloudy,210,2012-11-05 12:50:00
2:20 PM,73.4,68.0,83,29.77,6.2,SW,8.1,-,N/A,,Mostly Cloudy,220,2012-11-05 13:20:00
2:50 PM,73.4,66.2,78,29.77,6.2,SSW,8.1,-,N/A,,Mostly Cloudy,200,2012-11-05 13:50:00
3:20 PM,71.6,68.0,88,29.77,6.2,South,6.9,-,N/A,,Mostly Cloudy,190,2012-11-05 14:20:00
3:50 PM,73.4,66.2,78,29.77,6.2,SW,6.9,-,N/A,,Mostly Cloudy,220,2012-11-05 14:50:00
4:20 PM,71.6,66.2,83,29.77,6.2,WSW,10.4,-,N/A,,Mostly Cloudy,240,2012-11-05 15:20:00
4:50 PM,71.6,66.2,83,29.80,6.2,WSW,11.5,-,N/A,,Mostly Cloudy,240,2012-11-05 15:50:00
5:20 PM,69.8,64.4,83,29.80,6.2,WNW,13.8,-,N/A,,Mostly Cloudy,290,2012-11-05 16:20:00
5:50 PM,68.0,62.6,83,29.83,6.2,West,10.4,-,N/A,,Scattered Clouds,280,2012-11-05 16:50:00
6:20 PM,68.0,60.8,78,29.83,6.2,West,11.5,-,N/A,,Scattered Clouds,260,2012-11-05 17:20:00
6:50 PM,66.2,59.0,78,29.83,-9999.0,WSW,11.5,-,N/A,,Clear,250,2012-11-05 17:50:00
7:20 PM,66.2,57.2,73,29.86,-9999.0,West,8.1,-,N/A,,Clear,260,2012-11-05 18:20:00
7:50 PM,66.2,57.2,73,29.86,-9999.0,WSW,6.9,-,N/A,,Clear,240,2012-11-05 18:50:00
8:20 PM,66.2,57.2,73,29.89,-9999.0,Variable,3.5,-,N/A,,Clear,0,2012-11-05 19:20:00
8:50 PM,64.4,55.4,73,29.89,-9999.0,SW,3.5,-,N/A,,Clear,220,2012-11-05 19:50:00
9:20 PM,64.4,55.4,73,29.92,-9999.0,West,6.9,-,N/A,,Clear,280,2012-11-05 20:20:00
9:50 PM,64.4,55.4,73,29.92,-9999.0,WNW,9.2,-,N/A,,Clear,290,2012-11-05 20:50:00
10:20 PM,64.4,55.4,73,29.92,-9999.0,West,9.2,-,N/A,,Clear,270,2012-11-05 21:20:00
10:50 PM,62.6,53.6,72,29.92,-9999.0,West,6.9,-,N/A,,Clear,270,2012-11-05 21:50:00
11:20 PM,62.6,53.6,72,29.92,-9999.0,West,9.2,-,N/A,,Clear,270,2012-11-05 22:20:00
11:50 PM,62.6,53.6,72,29.95,6.2,West,8.1,-,N/A,,Partly Cloudy,270,2012-11-05 22:50:00